Find Starlink 34788

NORAD ID: 65056 Int'l Des: 2025-165 Owner: SPXS Country: US Constellation: starlink operational
LEOCIRCULARRETROGRADESSO

当前视图

正在加载3D地球...

About Starlink 34788

Starlink 34788 (NORAD 65056) is a starlink constellation satellite (v2 mini) launched Jul 31, 2025 by SPXS of US. It operates in LEO, CIRCULAR, RETROGRADE, SSO orbit with a mass of 575.00 kg.

即将过境

Passes for default location (London). Set your location on the main map for personalized predictions.

高度历史

Loading altitude history...

两行轨道根数

1 65056U 25165A 26263.00003471 .00031764 00000-0 98269-3 0 9993
2 65056 97.2853 334.2066 0001594 81.5684 57.1336 15.33424806 5559
Epoch: Sep 20, 2026 • Age: 26 hours

当前状态

高度 467.3 km
远地点 / 近地点 N/A
速度 7.63 km/s
星下点 14.25°N, 57.8°W
发射日期 Jul 31, 2025
运行时间 1.1 years
类型 internet

技术详情

分类 Payload
质量 575.00 kg
干质量 530.00 kg
长度 0.30 m
跨度 29.00 m
形状 ? Box + pan
制造商 SPXS
平台类型 Starlink V2MO
阶段状态 In Orbit
所有者/国家 SPXS/US

Most Searched